AMAZONAS 5 (42934 NORAD) Tracking and Keplerian Element Data

This shows tracking and keplerian element data for the satellite.

Feedback or suggestion? Click here.




ElementValue
Catalog42934
NameAMAZONAS 5
Epoch Orbit311
Epoch Day198.34974263
Epoch Year2018
RAAN335.6896
Inclination0.0261
Eccentricity0.0001549
Argument of Perigee104.1454
Mean Anonmoly280.1644
Mean Motion1.00269747
Decay Rate-3.02E-06
L11 42934U 17053A 18198.34974263 -.00000302 00000-0 00000-0 0 9999
L22 42934 0.0261 335.6896 0001549 104.1454 280.1644 1.00269747 3117

Live tracking and technical data element details for AMAZONAS 5 (NORAD 42934). AMAZONAS 5 can be tracked NOW for your location showing map with azimuth and elevation plus other details from your city location.

Track the satellite on the map from your city or location and see movement details for azimuth, elevation, latitude, longitude, range, height, and movement on the map or in text.







IsCatalogInMostPopularTable: catalog: 42934, numindb: 99
Update: records affected: 1



GetName: 42934 AMAZONAS 5

Hit Count: updated at: Thu, 19 Jul 2018 21:28:42 GMT